User: anonymous   Login
Location: Fort Wayne
(41.1310°N, 85.1290°W)
Time: 14:30:17
(UTC-04:00)
Language:

Helios 1B - Orbit

View from above orbital plane
View from above orbital plane
View from above satellite
View from above satellite

Ground track
Ground track

The orbit data is extracted from the following two-line orbital elements,

1 25977U 99064A   17231.41309334  .00000085  00000-0  17584-4 0  9991
2 25977  98.1558 344.1022 0002612  86.6690 273.4821 14.82281638953377
Epoch (UTC): 19 August 2017 09:54:51
Eccentricity: 0.0002612
inclination: 98.1558°
perigee height: 620 km
apogee height: 624 km
right ascension of ascending node: 344.1022°
argument of perigee: 86.6690°
revolutions per day: 14.82281638
mean anomaly at epoch: 273.4821°
orbit number at epoch: 95337

The dashed part of the orbit path shows where the satellite is in the earth's shadow,  

DLR